Regional Weather Roundup
Issued by NWS

Home | Current Version | Previous Version | Text Only | Print | Product List | Glossary On
Versions: 1 2 3 4 5 6 7 8 9 10 11 12 13 14 15 16 17 18 19 20 21 22 23 24 25 26 27 28 29 30 31 32 33 34 35 36 37 38 39 40 41 42 43 44 45 46 47 48 49 50
000
ASPQ40 PGUM 212112
RWRPQ
WEATHER ROUNDUP FOR THE MARIANAS AND MICRONESIA
NATIONAL WEATHER SERVICE TIYAN GU
700 AM CHST MON SEP 22 2014

GUZ001>004-212200-
MARIANA ISLANDS-

CITY           SKY/WX    TMP DP  RH WIND       PRES   REMARKS
GUAM AIRPORT   LGT RAIN  81  79  94 N6        29.81R
ANDERSEN AFB   MOSUNNY   79  75  89 N7        29.81S
ROTA AIRPORT   MOSUNNY   81  77  89 NE6       29.82R
TINIAN AP      MOSUNNY   81  77  89 NE6       29.79R
SAIPAN AP      SUNNY     82  79  89 NE8       29.80R HX  93

$$

PMZ161-212200-
REPUBLIC OF PALAU-

CITY           SKY/WX    TMP DP  RH WIND       PRES   REMARKS
KOROR AP       NOT AVBL
KOROR WSO      PTCLDY    77  75  94 CALM      29.82S

$$

PMZ171>174-212200-
FEDERATED STATES OF MICRONESIA-

CITY           SKY/WX    TMP DP  RH WIND       PRES   REMARKS
YAP AIRPORT    PTCLDY    79  77  94 CALM      29.80R
CHUUK AP       CLOUDY    81  77  89 W12       29.80R
POHNPEI AP     NOT AVBL
POHNPEI WSO    CLOUDY    81  77  89 W3        29.86
KOSRAE AP      NOT AVBL

$$

PMZ181-212200-
REPUBLIC OF THE MARSHALL ISLANDS-

CITY           SKY/WX    TMP DP  RH WIND       PRES   REMARKS
KWAJALEIN AP   SUNNY     86  73  66 NE7       29.84R HX  93
MAJURO AP      NOT AVBL
MAJURO WSO     PTSUNNY   81  77  89 SW15      29.83R

$$



USA.gov is the U.S. government's official web portal to all federal, state and local government web resources and services.